NOAA 17 DEB, 48755

Orbit data source: Space-Track

NOAA 17 DEB, 48755 is space debris in SSO originally from a launch on Mon, 24 Jun 2002 UTC launched from the Air Force Western Test Range (AFWTR). Debris objects in space refer to the collection of defunct objects orbiting the Earth. Examples of debris include non-operational satellites, rocket bodies, and fragments generated from explosions, collisions, or faulty payload assembly.

Loading next visibility...
Identifier
48755, 2002-032CQ
Orbit
SSO
Country
Flag of USUS
Related business
Manufacturer
Unknown
Mission
Spacecraft
Bus & Motor
Unknown
Mass
Unknown
Launch date (UTC)
2002-06-24 (23 years ago)
Launch vehicle
Unknown
Launch site
Air Force Western Test Range (AFWTR)
Object type
Payload
Rocket body
Debris
Shape & HBR
Unknown shape, 0.1 m
Radar Cross Section
Small (<0.1 m²)

Expand to show TLE details & history
Last TLE update: 21 hours ago

TLE from 21 hours ago
0 NOAA 17 DEB
1 48755U 02032CQ  25348.80193527  .00022947  00000-0  25040-2 0  9990
2 48755  98.7060  10.4553 0015219 141.7395 218.4902 14.87847496249376
Epoch: 2025-12-14T19:14Z
TLE epoch observation values (Epoch: 2025-12-14T19:14:47.207Z)
Latitude
0.00002°
Longitude
-1.95103°
Altitude
615.995 km
Speed
7.547 km/s
True Right ascension
00h 41m 49s
True Declination
0° 00' 00"
Sunlit
Object was in daylight at epoch
Visualization orbit readout
Latitude
Unknown
Longitude
Unknown
Altitude
Unknown
Speed
Unknown
Apparent Right ascension
Unknown
Apparent Declination
Unknown
Sunlit
N/A
Visualization observer readout
Local Sidereal Time
15:11:09
Azimuth
Unknown
Elevation
Unknown
Doppler factor
Unknown
Orbital elements
Apogee altitude
612.353 km
Perigee altitude
591.108 km
Semi-major axis
6,979.868 km
Eccentricity
0.00152
Inclination
98.706°
RAAN
10.4553°
Arg. of periapsis
141.7395°
True anomaly
218.38182°
Mean anomaly
218.4902°
Eccentric anomaly
218.43599°
Mean motion
3.72197 °/min
Orbital period
96.72 mins
BSTAR
0.002504
Loading maneuver chart data...
Computing Atmospheric mass density...
Loading historical data...
Loading historical data...
Loading historical data...
Loading historical data...
Loading historical data...
Loading historical data...
Loading historical data...

Documentation

Showing up to 5 results
|